TimeEST,TemperatureF,Dew PointF,Humidity,Sea Level PressureIn,VisibilityMPH,Wind Direction,Wind SpeedMPH,Gust SpeedMPH,PrecipitationIn,Events,Conditions,WindDirDegrees,DateUTC
12:54 AM,30.0,17.1,59,30.37,10.0,North,4.6,-,N/A,,Overcast,350,2012-12-06 05:54:00
1:54 AM,28.9,16.0,58,30.38,10.0,NE,5.8,-,N/A,,Overcast,50,2012-12-06 06:54:00
2:54 AM,28.0,16.0,61,30.40,10.0,ENE,4.6,-,N/A,,Overcast,60,2012-12-06 07:54:00
3:54 AM,27.0,16.0,63,30.41,10.0,Calm,Calm,-,N/A,,Overcast,0,2012-12-06 08:54:00
4:54 AM,27.0,16.0,63,30.40,10.0,East,4.6,-,N/A,,Overcast,80,2012-12-06 09:54:00
5:54 AM,26.1,15.1,63,30.41,10.0,ENE,4.6,-,N/A,,Overcast,70,2012-12-06 10:54:00
7:17 AM,24.8,15.8,69,30.39,10.0,Calm,Calm,-,N/A,,Scattered Clouds,0,2012-12-06 12:17:00
7:54 AM,24.1,16.0,71,30.41,10.0,Calm,Calm,-,N/A,,Partly Cloudy,0,2012-12-06 12:54:00
8:54 AM,26.1,16.0,66,30.41,10.0,Calm,Calm,-,N/A,,Clear,0,2012-12-06 13:54:00
9:54 AM,28.0,18.0,66,30.41,10.0,SE,5.8,-,N/A,,Partly Cloudy,130,2012-12-06 14:54:00
10:54 AM,28.9,19.9,69,30.38,10.0,SSE,4.6,-,N/A,,Clear,160,2012-12-06 15:54:00
11:54 AM,30.9,19.9,64,30.33,10.0,Variable,4.6,-,N/A,,Clear,0,2012-12-06 16:54:00
12:54 PM,32.0,19.9,61,30.29,10.0,Variable,6.9,-,N/A,,Clear,0,2012-12-06 17:54:00
1:54 PM,34.0,21.0,59,30.27,10.0,SE,3.5,-,N/A,,Clear,130,2012-12-06 18:54:00
2:54 PM,33.1,21.0,61,30.24,10.0,ESE,8.1,-,N/A,,Clear,120,2012-12-06 19:54:00
3:54 PM,32.0,21.0,64,30.23,10.0,ESE,4.6,-,N/A,,Clear,120,2012-12-06 20:54:00
4:54 PM,30.9,21.0,67,30.21,10.0,ESE,5.8,-,N/A,,Clear,110,2012-12-06 21:54:00
5:54 PM,30.9,19.9,64,30.20,10.0,ESE,5.8,-,N/A,,Clear,120,2012-12-06 22:54:00
6:54 PM,32.0,19.9,61,30.19,10.0,ESE,6.9,-,N/A,,Clear,120,2012-12-06 23:54:00
7:54 PM,32.0,21.9,66,30.16,10.0,SE,6.9,-,N/A,,Clear,130,2012-12-07 00:54:00
8:54 PM,32.0,21.9,66,30.14,10.0,ESE,6.9,-,N/A,,Clear,120,2012-12-07 01:54:00
9:54 PM,33.1,21.9,64,30.12,10.0,Variable,6.9,-,N/A,,Clear,0,2012-12-07 02:54:00
10:54 PM,34.0,21.9,61,30.10,10.0,SE,8.1,-,N/A,,Clear,130,2012-12-07 03:54:00
11:54 PM,34.0,21.9,61,30.08,10.0,SE,4.6,-,N/A,,Clear,140,2012-12-07 04:54:00